Regional Weather Roundup
Issued by NWS

Home | Current Version | Previous Version | Graphics & Text | Print | Product List | Glossary On
Versions: 1 2 3 4 5 6 7 8 9 10 11 12 13 14 15 16 17 18 19 20 21 22 23 24 25 26 27
000
ASUS45 KBOU 261607
RWRCO

WEATHER ROUNDUP FOR COLORADO
NATIONAL WEATHER SERVICE DENVER/BOULDER CO
1000 AM MDT FRI MAY 26 2017

NOTE: "FAIR" INDICATES FEW OR NO CLOUDS BELOW 12000 FEET WITH NO
SIGNIFICANT WEATHER AND/OR OBSTRUCTIONS TO VISIBILITY.

COZ001>005-013-030-031-261700-
...NORTHWEST COLORADO...

CITY           SKY/WX    TMP DP  RH WIND       PRES   REMARKS
CRAIG          FAIR      59  44  57 E10       29.86F
HAYDEN         FAIR      55  39  54 E9        29.89F
MEEKER         FAIR      65  37  35 S18G25    29.86F
RABBIT EARS PA FAIR      41  34  75 S12G18    30.08S
STEAMBOAT SPGS FAIR      52  41  66 CALM      29.91F
WALDEN           N/A     52  39  62 CALM      29.99F
$$

COZ006>008-011-261700-
...WEST CENTRAL VALLEYS...

CITY           SKY/WX    TMP DP  RH WIND       PRES   REMARKS
GRAND JUNCTION FAIR      71  38  29 SE23      29.84S
MONTROSE       FAIR      65  31  28 CALM      29.94F
EAGLE          MOSUNNY   57  37  47 CALM      29.97F
RIFLE          FAIR      66  40  38 NW7       29.87F
DELTA          FAIR      69  38  32 NE7       29.92S
NUCLA          FAIR      66  21  18 S22G31    29.97S
$$

COZ017>023-064>068-261700-
...SOUTHWEST COLORADO...

CITY           SKY/WX    TMP DP  RH WIND       PRES   REMARKS
DURANGO        FAIR      57  28  33 E8        30.05S
CORTEZ         FAIR      67  24  19 S14       29.99R
PAGOSA SPRINGS FAIR      59  16  18 S6        30.11S
TELLURIDE      FAIR      54  21  27 CALM      30.13S
WOLF CREEK PAS FAIR      37  18  44 SW18G30   30.30S
$$

COZ009-010-012-014-032>034-037-058>063-261700-
...CENTRAL COLORADO...

CITY           SKY/WX    TMP DP  RH WIND       PRES   REMARKS
ASPEN          FAIR      60  27  28 S15G28    30.00R
BUENA VISTA    FAIR      54  36  50 S3        30.05F
COPPER MTN     FAIR      41  28  60 S20       30.21R
BERTHOUD PASS  FAIR      34  23  64 W29G38    30.19F WCI  20
COTTONWOOD PAS FAIR      52  37  58 E7        30.13S
GUNNISON       NOT AVBL
KREMMLING      FAIR      54  43  66 CALM      30.01F
LEADVILLE      FAIR      47  31  53 S13       30.10F
SALIDA         FAIR      59  37  43 CALM      30.10F
SUNLIGHT       FAIR      41  30  65 S13G25    30.16R
WILKERSON PASS FAIR      43  30  61 SW8       30.22S
$$

COZ069>075-261700-
...SAN LUIS VALLEY/SANGRE DE CRISTO MOUNTAINS...

CITY           SKY/WX    TMP DP  RH WIND       PRES   REMARKS
ALAMOSA        FAIR      63  19  18 SW8       30.05F
DEL NORTE      FAIR      57  30  35 CALM      30.08F
LA VETA PASS   FAIR      52  19  28 MISG      30.29S
SAGUACHE       FAIR      55  36  47 SE8       30.09S
$$

COZ035-036-038>040-261700-
...NORTHERN COLORADO FRONT RANGE...

CITY           SKY/WX    TMP DP  RH WIND       PRES   REMARKS
DENVER INTL AP PTSUNNY   55  44  66 E7        29.97F
DMNS CITY PARK   N/A     55  44  67 N8        29.97S
AURORA         PTSUNNY   54  47  78 SE7       29.98F
FRONT RANGE AP PTSUNNY   55  45  67 SE8       29.99F
ERIE MUNI ARPT CLOUDY    53  43  69 NE5       29.97F
BOULDER MUN AP CLOUDY    52  45  76 E6        29.97S
CENTENNIAL     FAIR      55  45  68 E8        29.97F
BROOMFIELD     PTSUNNY   54  46  76 VRB5      29.99F
FORT COLLINS   CLOUDY    51  39  63 S5        29.99F
LONGMONT       CLOUDY    58  42  55 E6        29.99S HAZE
$$

COZ041-046-047-076>085-087-088-261700-
...PIKES PEAK/PALMER DIVIDE AND SOUTHERN FOOTHILLS...

CITY           SKY/WX    TMP DP  RH WIND       PRES   REMARKS
COLO. SPRINGS  FAIR      60  48  64 S13       30.01F
A. F. ACADEMY  FAIR      56  46  67 S9        30.01F
SCHRIEVER AFB  FAIR      57  48  70 S12G20    30.02S
CHEYENNE MTN   NOT AVBL
ELLICOTT       FAIR     N/A N/A N/A S7        30.01S
FALCON         FAIR      55  45  68 S13       30.05S
FORT CARSON    FAIR      60  47  62 S14       29.99F
LIMON          FAIR      57  48  72 CALM      30.00S
MONUMENT HILL  FAIR      57  43  58 S12G17    30.03F
CANON CITY     NOT AVBL
WALSENBURG     FAIR      64  50  59 SE8       29.99F
TRINIDAD       FAIR      61  45  55 E7        30.00F
$$

COZ042>045-048>051-090-091-261700-
...NORTHEAST COLORADO...

CITY           SKY/WX    TMP DP  RH WIND       PRES   REMARKS
GREELEY ARPT   FAIR      55  41  59 SE8       29.98F
AKRON          FAIR      56  42  59 E7        29.98F
BURLINGTON     FAIR      60  50  69 NE13      29.97S
WRAY           FAIR      61  43  51 NE10      29.97S
YUMA           FAIR      54  36  50 NE7       29.97F
STERLING       FAIR      55  41  58 NE5       29.97S
HOLYOKE        NOT AVBL
FORT MORGAN    FAIR      56  40  56 E7        29.98F
$$

COZ086-089-092>099-261700-
...SOUTHEAST COLORADO...

CITY           SKY/WX    TMP DP  RH WIND       PRES   REMARKS
PUEBLO         FAIR      63  48  58 SE7       29.96F
LA JUNTA       FAIR      67  46  47 VRB3      29.96F
LAMAR          FAIR      69  50  50 W7        29.93S
SPRINGFIELD      N/A     70  45  40 N7        29.96S
$$




USA.gov is the U.S. government's official web portal to all federal, state and local government web resources and services.